Time,TemperatureF,DewpointF,PressureIn,WindDirection,WindDirectionDegrees,WindSpeedMPH,WindSpeedGustMPH,Humidity,HourlyPrecipIn,Conditions,Clouds,dailyrainin,SolarRadiationWatts/m^2,SoftwareType,DateUTC
2013-08-27 00:00:00,70.0,67.0,-100.00,SE,135,1.0,-999.0,90,-99.99,,,-99.99,0.000000,,2013-08-27 04:00:00,
2013-08-27 00:47:00,70.0,67.0,-100.00,SE,135,1.0,-999.0,90,-99.99,,,-99.99,0.000000,,2013-08-27 04:47:00,
2013-08-27 00:54:00,70.0,67.0,-100.00,SE,135,1.0,-999.0,90,-99.99,,,-99.99,0.000000,,2013-08-27 04:54:00,
2013-08-27 01:00:00,69.0,67.0,-100.00,East,90,1.0,-999.0,92,-99.99,,,-99.99,0.000000,,2013-08-27 05:00:00,
2013-08-27 01:43:00,69.0,67.0,-100.00,East,90,1.0,-999.0,92,-99.99,,,-99.99,0.000000,,2013-08-27 05:43:00,
2013-08-27 01:52:00,69.0,67.0,-100.00,East,90,1.0,-999.0,92,-99.99,,,-99.99,0.000000,,2013-08-27 05:52:00,
2013-08-27 02:00:00,69.0,67.0,-100.00,ESE,112,1.0,-999.0,94,-99.99,,,-99.99,0.000000,,2013-08-27 06:00:00,
2013-08-27 02:42:00,69.0,67.0,-100.00,ESE,112,1.0,-999.0,94,-99.99,,,-99.99,0.000000,,2013-08-27 06:42:00,
2013-08-27 02:52:00,69.0,67.0,-100.00,ESE,112,1.0,-999.0,94,-99.99,,,-99.99,0.000000,,2013-08-27 06:52:00,
2013-08-27 03:00:00,69.0,68.0,-100.00,WSW,247,3.0,-999.0,95,0.53,,,-99.99,0.000000,,2013-08-27 07:00:00,
2013-08-27 03:42:00,69.0,68.0,-100.00,WSW,247,3.0,-999.0,95,0.53,,,-99.99,0.000000,,2013-08-27 07:42:00,
2013-08-27 03:52:00,69.0,68.0,-100.00,WSW,247,3.0,-999.0,95,0.53,,,-99.99,0.000000,,2013-08-27 07:52:00,
2013-08-27 04:00:00,69.0,68.0,-100.00,ESE,112,1.0,-999.0,97,0.03,,,-99.99,0.000000,,2013-08-27 08:00:00,
2013-08-27 04:42:00,69.0,68.0,-100.00,ESE,112,1.0,-999.0,97,0.03,,,-99.99,0.000000,,2013-08-27 08:42:00,
2013-08-27 04:52:00,69.0,68.0,-100.00,ESE,112,1.0,-999.0,97,0.03,,,-99.99,0.000000,,2013-08-27 08:52:00,
2013-08-27 05:00:00,69.0,68.0,-100.00,South,180,1.0,-999.0,97,-99.99,,,-99.99,0.000000,,2013-08-27 09:00:00,
2013-08-27 05:43:00,69.0,68.0,-100.00,South,180,1.0,-999.0,97,-99.99,,,-99.99,0.000000,,2013-08-27 09:43:00,
2013-08-27 05:54:00,69.0,68.0,-100.00,South,180,1.0,-999.0,97,-99.99,,,-99.99,0.000000,,2013-08-27 09:54:00,
2013-08-27 06:00:00,69.0,68.0,-100.00,SW,225,2.0,-999.0,97,0.01,,,-99.99,0.000000,,2013-08-27 10:00:00,
2013-08-27 06:43:00,69.0,68.0,-100.00,SW,225,2.0,-999.0,97,0.01,,,-99.99,0.000000,,2013-08-27 10:43:00,
2013-08-27 06:53:00,69.0,68.0,-100.00,SW,225,2.0,-999.0,97,0.01,,,-99.99,0.000000,,2013-08-27 10:53:00,
2013-08-27 07:00:00,69.0,68.0,-100.00,SSW,202,1.0,-999.0,97,-99.99,,,-99.99,0.000000,,2013-08-27 11:00:00,
2013-08-27 07:42:00,69.0,68.0,-100.00,SSW,202,1.0,-999.0,97,-99.99,,,-99.99,0.000000,,2013-08-27 11:42:00,
2013-08-27 07:52:00,69.0,68.0,-100.00,SSW,202,1.0,-999.0,97,-99.99,,,-99.99,0.000000,,2013-08-27 11:52:00,
2013-08-27 08:00:00,69.0,68.0,-100.00,West,270,1.0,-999.0,97,0.02,,,-99.99,3.480000,,2013-08-27 12:00:00,
2013-08-27 08:42:00,69.0,68.0,-100.00,West,270,1.0,-999.0,97,0.02,,,-99.99,3.480000,,2013-08-27 12:42:00,
2013-08-27 08:52:00,69.0,68.0,-100.00,West,270,1.0,-999.0,97,0.02,,,-99.99,3.480000,,2013-08-27 12:52:00,
2013-08-27 09:00:00,69.0,68.0,-100.00,SSW,202,2.0,-999.0,97,0.20,,,-99.99,1.160000,,2013-08-27 13:00:00,
2013-08-27 09:42:00,69.0,68.0,-100.00,SSW,202,2.0,-999.0,97,0.20,,,-99.99,1.160000,,2013-08-27 13:42:00,
2013-08-27 09:52:00,69.0,68.0,-100.00,SSW,202,2.0,-999.0,97,0.20,,,-99.99,1.160000,,2013-08-27 13:52:00,
2013-08-27 10:00:00,69.0,68.0,-100.00,SSE,157,3.0,-999.0,97,0.15,,,-99.99,29.000000,,2013-08-27 14:00:00,
2013-08-27 10:42:00,69.0,68.0,-100.00,SSE,157,3.0,-999.0,97,0.15,,,-99.99,29.000000,,2013-08-27 14:42:00,
2013-08-27 10:53:00,69.0,68.0,-100.00,SSE,157,3.0,-999.0,97,0.15,,,-99.99,29.000000,,2013-08-27 14:53:00,
2013-08-27 11:00:00,70.0,69.0,-100.00,South,180,3.0,-999.0,97,-99.99,,,-99.99,81.199997,,2013-08-27 15:00:00,
2013-08-27 11:45:00,70.0,69.0,-100.00,South,180,3.0,-999.0,97,-99.99,,,-99.99,81.199997,,2013-08-27 15:45:00,
2013-08-27 11:58:00,70.0,69.0,-100.00,South,180,3.0,-999.0,97,-99.99,,,-99.99,81.199997,,2013-08-27 15:58:00,
2013-08-27 12:00:00,70.0,69.0,-100.00,SSW,202,2.0,-999.0,97,0.01,,,-99.99,76.559998,,2013-08-27 16:00:00,
2013-08-27 12:46:00,70.0,69.0,-100.00,SSW,202,2.0,-999.0,97,0.01,,,-99.99,76.559998,,2013-08-27 16:46:00,
2013-08-27 12:55:00,70.0,69.0,-100.00,SSW,202,2.0,-999.0,97,0.01,,,-99.99,76.559998,,2013-08-27 16:55:00,
2013-08-27 15:00:00,70.0,69.0,-100.00,SE,135,3.0,-999.0,95,-99.99,,,-99.99,157.759995,,2013-08-27 19:00:00,
2013-08-27 15:42:00,70.0,69.0,-100.00,SE,135,3.0,-999.0,95,-99.99,,,-99.99,157.759995,,2013-08-27 19:42:00,
2013-08-27 15:52:00,70.0,69.0,-100.00,SE,135,3.0,-999.0,95,-99.99,,,-99.99,157.759995,,2013-08-27 19:52:00,